Temperature
3 3 3 3 2 3 2 2 2 2 2 3 3 3 3 3 3 3 3 3 3 4 4 4 4 4 4 4 4 5 5 5 5 5 5 5 5 5
2 2 2 2 2 2 2 2 2 2 2 2 2 2 3 3 3 3 3 3 3 3 3 3 4 4 4 4 4 4 4 5 5 5 5 5 5 5
2 2 2 2 2 2 2 2 2 2 1 2 2 2 2 2 2 2 2 2 2 2 3 3 3 3 3 4 4 4 4 4 4 4 4 4 5 4
1 1 1 1 1 1 1 1 1 1 1 1 1 1 1 1 2 2 2 2 2 2 2 2 2 3 3 3 3 3 4 4 4 4 4 4 4 4
1 1 1 1 0 0 0 1 1 1 1 1 1 1 1 1 1 1 1 1 1 1 1 2 2 2 2 2 3 3 3 3 3 4 4 4 4 4
0 0 0 0 -0 0 0 0 0 0 0 0 0 0 0 0 0 1 1 1 1 1 1 1 1 2 2 2 2 2 3 3 3 3 3 3 4 3
0 -0 -0 -0 -0 -0 -0 -0 -0 -0 -0 -0 -0 -0 -0 0 0 0 0 0 1 1 1 1 1 1 1 2 2 2 2 3 3 3 3 3 3 3
-0 -0 -1 -1 -1 -1 -1 -1 -0 -1 -1 -1 -1 -1 -0 -0 -0 -0 -0 -0 -0 0 0 1 1 1 1 1 1 1 2 2 2 2 2 3 3 3
-1 -1 -1 -1 -1 -1 -1 -1 -1 -1 -1 -1 -1 -1 -1 -1 -1 -1 -1 -1 -1 -0 -0 0 0 1 1 1 1 1 1 1 2 2 2 2 2 2
-1 -1 -1 -2 -2 -2 -2 -1 -1 -1 -1 -1 -1 -1 -1 -1 -1 -1 -1 -1 -1 -1 -1 -1 -0 0 0 1 1 1 1 1 1 1 2 2 2 2
-2 -2 -2 -2 -2 -2 -2 -2 -2 -2 -2 -2 -2 -2 -2 -2 -1 -1 -1 -1 -1 -1 -1 -1 -1 -1 -0 -0 0 1 1 1 1 1 1 2 2 2
-3 -2 -2 -2 -2 -2 -2 -2 -2 -2 -2 -2 -2 -2 -2 -2 -2 -2 -2 -2 -2 -2 -1 -1 -1 -1 -1 -1 -0 0 0 0 0 1 1 1 1 1
-3 -3 -3 -3 -2 -2 -2 -2 -2 -2 -2 -2 -2 -2 -2 -2 -2 -2 -2 -2 -2 -2 -2 -2 -2 -2 -2 -2 -1 -1 -0 -0 0 0 0 1 1 1
-3 -3 -3 -3 -3 -3 -3 -3 -3 -2 -2 -2 -2 -2 -2 -2 -2 -2 -2 -2 -2 -2 -2 -2 -2 -2 -2 -2 -2 -1 -1 -1 -0 -0 -0 0 0 1
-3 -3 -3 -3 -3 -3 -3 -3 -3 -3 -3 -3 -3 -3 -3 -3 -2 -2 -2 -2 -2 -2 -2 -2 -2 -2 -2 -2 -2 -2 -1 -1 -1 -1 -0 -0 -0 0
-3 -3 -3 -3 -3 -3 -3 -3 -3 -3 -3 -3 -3 -3 -3 -3 -3 -3 -3 -2 -2 -2 -2 -2 -2 -2 -2 -2 -2 -2 -2 -2 -1 -1 -1 -1 -1 -0
-4 -3 -3 -3 -3 -3 -3 -3 -3 -3 -3 -3 -3 -3 -3 -3 -3 -3 -3 -3 -3 -3 -3 -2 -2 -2 -2 -2 -2 -2 -2 -2 -2 -1 -1 -1 -1 -1
-4 -4 -4 -4 -4 -4 -4 -4 -4 -4 -4 -3 -3 -3 -3 -3 -3 -3 -3 -3 -3 -3 -3 -3 -3 -3 -2 -3 -3 -2 -2 -2 -2 -2 -2 -2 -2 -1
-4 -4 -4 -4 -4 -4 -4 -4 -4 -4 -4 -4 -4 -4 -4 -4 -4 -4 -4 -3 -3 -3 -3 -3 -3 -3 -3 -3 -3 -3 -3 -2 -2 -2 -2 -2 -2 -2
-4 -4 -4 -4 -4 -4 -4 -4 -4 -4 -4 -4 -4 -4 -4 -4 -4 -4 -4 -4 -4 -4 -3 -3 -3 -3 -3 -3 -3 -3 -3 -3 -2 -2 -2 -2 -2 -2
-4 -4 -4 -4 -4 -4 -4 -4 -4 -4 -4 -4 -4 -4 -4 -4 -4 -4 -4 -4 -4 -4 -4 -4 -3 -3 -3 -3 -3 -3 -3 -3 -3 -3 -3 -2 -2 -2
-5 -4 -4 -4 -4 -4 -4 -4 -4 -4 -4 -4 -4 -4 -4 -4 -4 -4 -4 -4 -4 -4 -4 -3 -3 -3 -3 -3 -3 -3 -3 -3 -3 -3 -3 -3 -3 -3
-5 -5 -5 -4 -4 -4 -4 -4 -4 -4 -4 -4 -4 -4 -4 -4 -4 -4 -4 -4 -4 -4 -4 -4 -3 -3 -3 -3 -4 -4 -4 -3 -3 -3 -3 -3 -3 -3
Wind_Speed
4 4 4 3 4 4 4 4 4 6 6 4 3 3 4 4 6 7 7 10 12 12 12 13 13 14 14 14 15 15 15 15 13 12 12 13 13 13
3 4 4 4 4 3 4 4 4 5 6 4 4 4 4 5 8 7 7 10 11 12 12 13 13 14 14 14 14 15 14 13 13 12 12 13 13 13
4 4 4 4 4 3 3 4 4 4 7 6 4 4 5 6 5 6 7 6 7 11 12 13 13 14 14 12 12 12 12 12 12 12 12 12 12 11
4 4 4 4 4 4 4 4 4 4 5 7 6 4 6 5 5 5 5 6 6 10 11 12 12 12 11 10 11 11 11 12 12 12 12 12 11 11
4 4 4 4 4 4 4 4 4 4 4 5 6 4 5 4 5 5 5 4 6 8 9 10 11 11 10 10 10 11 10 11 11 11 11 11 11 11
4 4 4 4 4 4 4 4 4 4 3 4 5 4 4 4 4 4 5 4 5 5 6 8 10 10 10 10 9 9 9 10 9 9 9 9 9 9
3 4 4 5 5 5 5 4 3 3 3 4 4 4 4 4 4 4 5 5 5 4 4 5 5 5 6 8 8 8 8 8 8 7 8 8 7 7
4 3 4 4 5 6 7 6 5 5 4 4 4 5 5 5 4 4 4 5 4 2 3 5 4 4 4 4 6 7 6 7 6 6 6 6 6 6
3 3 4 4 5 4 5 6 6 7 7 6 5 6 6 5 4 5 4 5 5 4 4 5 3 4 4 5 7 6 5 6 6 5 4 4 4 4
4 4 4 4 4 4 3 4 4 4 5 4 4 5 5 5 4 5 5 4 4 3 2 3 4 4 5 4 6 5 5 5 5 5 5 3 3 3
4 4 3 4 5 5 4 3 3 3 4 5 5 5 7 7 5 3 3 3 4 4 2 2 3 4 4 3 4 5 5 7 6 6 5 4 3 3
3 3 4 5 5 5 3 3 3 4 3 4 4 5 4 5 5 3 3 3 3 3 2 2 2 3 3 2 3 4 5 6 7 6 5 4 3 1
3 3 3 6 6 5 4 3 4 3 2 2 2 2 3 3 3 3 2 2 3 3 3 2 2 2 2 3 3 3 3 4 5 5 6 5 4 2
3 3 4 6 6 5 4 4 4 3 1 1 1 2 2 2 3 3 3 3 2 3 3 2 2 2 2 3 3 3 3 3 4 4 4 5 4 4
3 5 7 6 5 4 4 4 2 1 1 1 2 2 2 2 2 3 3 3 3 3 3 3 2 2 2 2 3 3 3 4 4 3 4 4 3 3
3 5 6 5 4 4 3 2 1 1 1 1 2 2 2 2 2 2 3 3 3 3 4 5 4 2 1 2 2 3 3 2 3 4 3 4 4 4
3 2 2 2 2 2 2 2 2 2 2 1 1 1 2 2 2 2 2 2 2 3 4 3 4 4 3 2 2 2 2 2 3 3 3 4 4 4
3 1 2 2 2 2 2 2 2 2 2 2 1 1 1 2 2 2 2 2 2 3 3 3 3 3 2 3 3 2 2 2 3 3 3 3 4 4
2 1 1 1 1 2 2 2 2 2 2 1 1 1 1 2 2 2 2 2 2 3 3 3 3 2 2 3 4 4 2 2 3 3 3 3 3 4
1 1 1 1 1 1 2 2 2 2 1 1 1 1 1 1 1 2 2 2 2 3 3 3 3 3 2 1 2 3 6 3 2 2 3 2 2 4
2 1 1 1 1 1 2 2 2 1 1 1 1 1 1 1 1 1 2 2 2 2 3 3 3 4 2 1 1 3 4 6 4 2 2 2 2 3
3 2 2 1 1 1 1 1 1 1 1 1 1 1 1 1 1 1 1 1 1 2 2 3 3 3 2 2 2 2 3 5 7 8 6 3 1 1
3 3 2 2 1 1 1 1 2 1 1 1 1 1 1 1 1 1 1 1 1 1 2 2 2 2 2 2 2 2 3 4 3 4 5 7 4 2
Wind_Direction
250 257 262 263 261 266 266 258 260 283 287 273 278 273 270 273 283 287 284 285 289 284 279 278 278 278 279 281 282 281 278 278 274 264 266 263 262 263
252 257 264 268 265 259 264 268 260 261 276 279 285 296 294 292 291 292 291 297 296 294 285 280 279 276 276 279 279 278 275 275 272 263 263 266 262 262
261 260 264 267 268 270 269 270 268 263 270 284 284 288 293 290 292 291 287 284 285 293 292 284 282 278 275 273 276 275 276 277 273 267 266 268 268 264
264 264 266 271 268 266 265 266 269 268 266 279 289 289 284 284 287 287 293 293 285 293 295 296 293 288 280 275 277 273 276 277 273 271 266 266 268 267
260 260 266 266 268 267 268 266 270 276 268 272 284 288 292 297 299 296 292 295 294 297 297 297 297 296 288 282 281 277 278 280 275 273 264 263 263 267
267 262 261 258 262 264 268 265 265 269 271 274 280 289 290 294 295 294 298 297 296 303 302 302 302 300 294 289 288 288 288 285 278 273 265 260 262 262
283 275 275 279 275 272 274 271 263 264 272 274 279 291 292 302 296 292 294 300 293 300 306 308 306 304 301 294 296 299 297 291 284 279 268 261 259 257
286 282 280 280 285 288 288 282 270 260 266 271 279 283 285 287 293 297 300 306 300 304 312 307 311 304 307 313 312 308 310 307 291 281 280 268 254 255
282 282 289 291 290 272 290 296 283 276 268 264 270 276 283 290 294 296 295 295 292 296 310 305 312 310 317 327 331 321 320 320 317 296 285 280 267 258
289 281 279 283 290 291 291 291 282 278 275 272 272 281 289 293 281 278 283 295 304 304 306 294 306 311 316 324 326 328 333 333 333 330 312 283 267 264
295 288 282 277 294 300 291 287 291 295 309 309 306 311 313 312 315 309 306 305 308 313 324 306 304 311 311 310 325 340 343 344 340 339 339 335 301 276
306 297 291 290 295 292 274 267 279 290 304 315 320 324 321 320 324 312 291 292 305 305 317 329 314 331 321 321 346 358 360 357 354 351 351 351 340 338
307 307 299 303 298 292 288 269 281 294 291 297 308 321 326 329 333 336 327 289 289 292 307 331 326 328 307 314 336 352 358 360 5 3 3 4 3 19
295 298 303 313 310 298 289 305 316 322 313 322 328 331 326 326 327 337 347 347 329 297 304 316 297 302 311 316 318 338 349 358 9 8 9 8 8 10
305 312 317 320 319 309 309 316 318 317 329 326 313 315 316 316 328 340 352 359 3 358 354 343 312 299 305 298 305 322 333 355 13 19 19 18 8 6
316 315 319 328 332 332 335 328 316 308 305 298 311 324 337 341 339 342 340 345 356 358 9 15 10 351 325 323 321 332 340 344 1 11 15 15 14 18
326 323 328 340 349 348 341 347 344 341 341 337 345 350 349 348 347 353 354 358 10 9 10 10 19 29 26 357 343 346 352 356 350 354 15 20 13 19
337 327 328 335 339 343 349 353 356 353 345 346 353 347 346 350 354 360 7 9 7 1 359 351 353 356 12 26 10 342 359 358 358 5 21 33 14 14
348 320 314 323 334 334 338 338 337 336 338 344 349 356 354 354 359 4 9 7 359 357 358 356 357 9 20 6 2 9 8 2 14 22 25 36 24 14
337 321 325 322 332 334 332 330 336 339 344 351 0 4 359 1 6 2 3 0 354 359 4 5 6 3 359 324 320 347 9 11 11 14 16 27 30 18
332 331 329 330 330 333 332 327 324 324 339 358 4 0 2 16 5 356 360 1 5 7 6 353 342 346 338 3 19 5 15 25 28 5 344 7 16 20
334 338 335 335 327 327 329 327 326 329 347 9 1 347 347 1 356 351 358 6 9 8 357 346 348 6 23 46 33 9 10 19 28 33 34 38 51 31
339 340 335 331 334 333 333 338 332 326 348 11 8 345 341 356 8 10 12 18 28 28 19 10 10 22 22 29 33 26 19 12 23 34 31 35 51 39
Height
1446 1446 1446 1446 1446 1446 1446 1445 1444 1440 1437 1437 1437 1436 1436 1435 1434 1433 1431 1430 1428 1427 1426 1425 1424 1423 1423 1422 1421 1421 1422 1422 1422 1422 1424 1425 1426 1426
1442 1441 1441 1441 1441 1441 1441 1440 1439 1438 1434 1432 1432 1432 1432 1430 1429 1428 1426 1425 1423 1421 1420 1419 1418 1417 1416 1415 1415 1415 1415 1415 1416 1416 1418 1419 1420 1420
1437 1437 1436 1436 1436 1436 1436 1435 1434 1433 1430 1428 1428 1428 1427 1425 1423 1422 1421 1419 1417 1416 1414 1413 1412 1411 1409 1408 1408 1409 1409 1409 1410 1410 1411 1412 1413 1414
1433 1432 1432 1432 1431 1431 1430 1430 1429 1429 1427 1424 1423 1423 1422 1420 1419 1417 1416 1414 1412 1411 1409 1408 1407 1405 1403 1402 1403 1403 1403 1403 1403 1404 1405 1406 1407 1408
1429 1428 1428 1428 1427 1426 1426 1425 1425 1424 1423 1421 1419 1418 1417 1416 1414 1413 1411 1410 1408 1406 1405 1404 1402 1400 1399 1398 1398 1398 1398 1398 1398 1397 1399 1400 1401 1402
1425 1425 1424 1424 1423 1422 1422 1421 1420 1420 1419 1418 1416 1414 1413 1412 1411 1408 1406 1405 1404 1402 1401 1400 1398 1396 1395 1395 1395 1394 1393 1393 1392 1392 1393 1394 1395 1396
1421 1421 1420 1420 1419 1419 1418 1417 1417 1416 1415 1414 1413 1411 1410 1408 1407 1405 1403 1401 1400 1399 1397 1396 1394 1393 1392 1391 1390 1389 1388 1387 1387 1387 1387 1388 1390 1391
1417 1416 1416 1416 1415 1415 1414 1414 1413 1413 1411 1411 1409 1408 1406 1406 1404 1403 1401 1398 1396 1396 1394 1392 1391 1390 1389 1387 1386 1385 1384 1384 1383 1383 1383 1384 1385 1387
1413 1413 1412 1412 1411 1411 1410 1409 1409 1409 1409 1408 1406 1404 1404 1403 1402 1400 1398 1396 1394 1393 1392 1389 1389 1387 1386 1384 1383 1382 1381 1381 1380 1379 1380 1381 1382 1383
1410 1409 1408 1408 1408 1408 1407 1405 1405 1404 1404 1404 1403 1401 1401 1400 1399 1398 1396 1394 1392 1391 1390 1388 1386 1384 1383 1381 1380 1379 1379 1379 1378 1378 1377 1378 1379 1380
1406 1406 1405 1405 1405 1405 1404 1402 1401 1401 1401 1400 1399 1398 1398 1397 1397 1395 1393 1391 1389 1388 1388 1386 1384 1382 1380 1379 1378 1377 1377 1376 1376 1376 1375 1375 1376 1377
1403 1402 1402 1402 1402 1401 1401 1399 1398 1397 1397 1396 1396 1395 1395 1394 1393 1392 1391 1389 1387 1386 1385 1385 1383 1382 1379 1378 1377 1375 1375 1375 1374 1374 1373 1373 1374 1374
1400 1399 1399 1399 1398 1398 1398 1397 1396 1396 1394 1393 1393 1392 1392 1391 1390 1389 1388 1387 1386 1385 1384 1384 1382 1381 1379 1377 1375 1375 1374 1373 1372 1372 1372 1372 1372 1372
1397 1397 1396 1396 1395 1395 1395 1394 1393 1393 1392 1391 1390 1389 1389 1388 1388 1387 1386 1385 1385 1384 1383 1382 1381 1380 1378 1376 1375 1374 1373 1372 1371 1370 1370 1370 1370 1370
1395 1394 1394 1393 1393 1392 1391 1391 1391 1390 1390 1389 1388 1388 1387 1387 1386 1385 1384 1384 1383 1382 1381 1380 1380 1379 1378 1376 1375 1373 1372 1371 1371 1370 1369 1369 1369 1369
1393 1392 1391 1390 1390 1389 1389 1389 1388 1388 1388 1387 1387 1386 1386 1386 1385 1384 1383 1382 1381 1380 1380 1380 1379 1378 1377 1376 1374 1373 1372 1371 1370 1369 1369 1368 1368 1368
1391 1389 1389 1388 1387 1387 1387 1386 1386 1386 1386 1386 1385 1385 1385 1384 1384 1383 1383 1382 1381 1380 1379 1379 1379 1377 1376 1375 1374 1373 1372 1371 1371 1370 1369 1368 1367 1367
1389 1387 1386 1386 1385 1385 1385 1385 1385 1385 1384 1384 1384 1384 1384 1383 1383 1383 1382 1382 1381 1380 1379 1379 1378 1377 1376 1375 1375 1374 1373 1372 1371 1370 1369 1368 1367 1367
1387 1385 1385 1384 1384 1384 1384 1384 1383 1384 1383 1383 1383 1383 1383 1383 1382 1382 1382 1381 1381 1380 1380 1379 1378 1377 1376 1375 1375 1375 1374 1372 1372 1371 1370 1369 1368 1368
1385 1384 1383 1383 1383 1383 1383 1383 1383 1383 1383 1382 1382 1382 1383 1383 1382 1382 1382 1381 1381 1380 1380 1379 1379 1378 1377 1377 1376 1375 1375 1374 1373 1372 1371 1371 1370 1371
1383 1383 1382 1382 1382 1382 1382 1382 1382 1382 1382 1382 1382 1382 1382 1382 1382 1382 1381 1381 1381 1381 1380 1379 1379 1379 1378 1377 1376 1375 1375 1375 1374 1373 1372 1372 1371 1371
1382 1382 1381 1381 1381 1381 1381 1381 1381 1381 1381 1381 1381 1381 1382 1382 1382 1381 1381 1381 1381 1381 1380 1380 1380 1379 1379 1378 1377 1376 1376 1376 1375 1374 1374 1373 1373 1372
1381 1381 1380 1380 1380 1380 1380 1380 1380 1380 1380 1380 1380 1381 1381 1381 1381 1381 1381 1381 1381 1381 1381 1381 1380 1380 1379 1378 1378 1377 1377 1376 1376 1375 1375 1375 1374 1374